Weather History for Aberdeen, SD

Change the Weather History Date:

Saturday, January 12, 2013

  Actual Average Record
Temperature  
Mean Temperature 5 °F 12 °F  
Max Temperature 9 °F 22 °F 58 °F (1987)
Min Temperature 0 °F 1 °F -46 °F (1912)
Degree Days  
Heating Degree Days 60 53  
Month to date heating degree days 564 636  
Since 1 July heating degree days 3988 4127  
Cooling Degree Days 0 0  
Month to date cooling degree days 0 0  
Year to date cooling degree days 0 0  
Moisture  
Dew Point -1 °F    
Average Humidity 76    
Maximum Humidity 83    
Minimum Humidity 68    
Precipitation  
Precipitation 0.03 in 0.02 in 0.43 in (1995)
Month to date precipitation 0.05 0.21  
Year to date precipitation 0.05 0.21  
Snow  
Snow 0.60 in - - ()
Month to date snowfall 1.1  
Since 1 July snowfall 15.0  
Snow Depth 2.00 in    
Sea Level Pressure  
Sea Level Pressure 29.96 in    
Wind  
Wind Speed 16 mph (NNW)    
Max Wind Speed 24 mph    
Max Gust Speed 30 mph    
Visibility 5 miles    
Events Snow    
T = Trace of Precipitation, MM = Missing Value Source: NWS Daily Summary

Daily Weather History Graph

Daily Weather History Graph

Search for Another Location

Airport:

Trip Planner

Search our weather history database for the weather conditions in past years. The results will help you decide how hot, cold, wet, or windy it might be!

Date:

Astronomy

Jan. 12, 2013 Rise Set
Actual Time 8:11 AM CST 5:13 PM CST
Civil Twilight 7:37 AM CST 5:46 PM CST
Nautical Twilight 7:01 AM CST 6:23 PM CST
Astronomical Twilight 6:25 AM CST 6:59 PM CST
Moon 8:25 AM CST (1/12) 6:50 PM CST (1/12)
Length of Visible Light 10h 08m
Length of Day
9h 02m
New Moon, 1% of the Moon is Illuminated
Jan 12
New Moon
Jan 18
First Quarter
Jan 26
Full
Feb 3
Last Quarter
Feb 10
New

Hourly Weather History & Observations

Time (CST) Temp. Windchill Dew Point Humidity Pressure Visibility Wind Dir Wind Speed Gust Speed Precip Events Conditions
12:38 AM 8.6 °F - 1.4 °F 73% 29.66 in 1.2 mi North - - 0.01 in Snow Light Snow
12:47 AM 8.6 °F - 1.4 °F 73% 29.66 in 2.0 mi North - - 0.01 in Snow Light Snow
12:48 AM 8.1 °F - 1.9 °F 76% 29.73 in 2.0 mi North - - 0.01 in Snow Light Snow
12:57 AM 8.6 °F - 3.2 °F 79% 29.67 in 3.0 mi North - - 0.01 in Snow Light Snow
1:05 AM 8.6 °F - 1.4 °F 73% 29.67 in 2.0 mi North - - 0.01 in Snow Light Snow
1:27 AM 8.6 °F - 1.4 °F 73% 29.69 in 1.8 mi North - - 0.01 in Snow Light Snow
1:38 AM 6.8 °F - 1.4 °F 79% 29.69 in 2.0 mi North - - 0.01 in Snow Light Snow
1:53 AM 7.0 °F - 1.9 °F 80% 29.78 in 2.5 mi North - - 0.01 in Snow Light Snow
2:00 AM 6.8 °F - 1.4 °F 79% 29.71 in 1.2 mi North - - 0.00 in Snow Light Snow
2:14 AM 6.8 °F - 1.4 °F 79% 29.71 in 1.5 mi North - - 0.00 in Snow Light Snow
2:40 AM 6.8 °F - 1.4 °F 79% 29.73 in 2.5 mi North - - 0.00 in Snow Light Snow
2:53 AM 7.0 °F - 1.9 °F 80% 29.81 in 1.8 mi North - - 0.00 in Snow Light Snow
3:11 AM 6.8 °F - -0.4 °F 72% 29.75 in 2.0 mi North - - 0.00 in Snow Light Snow
3:34 AM 6.8 °F - -0.4 °F 72% 29.76 in 3.0 mi North - - 0.00 in Snow Light Snow
3:53 AM 5.0 °F - -0.9 °F 76% 29.85 in 4.0 mi North - - 0.00 in Snow Light Snow
4:30 AM 5.0 °F -15.7 °F -0.4 °F 78% 29.79 in 5.0 mi NNW 20.7 mph 31.1 mph N/A Snow Light Snow
4:53 AM 5.0 °F - -0.9 °F 76% 29.88 in 8.0 mi North - - 0.00 in Snow Light Snow
5:29 AM 5.0 °F - -0.4 °F 78% 29.82 in 4.0 mi North - - 0.00 in Snow Light Snow
5:42 AM 5.0 °F - -0.4 °F 78% 29.83 in 4.0 mi North - - 0.00 in Snow Light Snow
5:53 AM 3.9 °F - -2.0 °F 76% 29.93 in 4.0 mi North - - 0.00 in Snow Light Snow
5:57 AM 3.2 °F -18.1 °F -0.4 °F 85% 29.84 in 4.0 mi NW 20.7 mph 36.8 mph N/A Snow Light Snow
6:53 AM 3.9 °F - -2.9 °F 73% 29.95 in 10.0 mi North - - 0.00 in   Mostly Cloudy
7:01 AM 3.2 °F - -2.2 °F 78% 29.87 in 10.0 mi North - - N/A   Mostly Cloudy
7:31 AM 3.2 °F - -2.2 °F 78% 29.88 in 10.0 mi North - - N/A   Scattered Clouds
7:53 AM 3.0 °F - -2.9 °F 76% 29.98 in 10.0 mi North - - N/A   Partly Cloudy
8:53 AM 5.0 °F - -2.0 °F 73% 30.01 in 10.0 mi North - - N/A   Clear
9:53 AM 5.0 °F - -2.9 °F 70% 30.05 in 10.0 mi North - - N/A   Scattered Clouds
10:03 AM 5.0 °F - -4.0 °F 66% 29.97 in 10.0 mi North - - N/A   Mostly Cloudy
10:53 AM 6.1 °F -14.3 °F -2.9 °F 67% 30.08 in 7.0 mi NW 20.7 mph - 0.00 in Snow Light Snow
11:04 AM 6.8 °F -13.8 °F -2.2 °F 67% 30.00 in 4.0 mi NNW 21.9 mph - 0.00 in Snow Light Snow
11:40 AM 6.8 °F - -2.2 °F 67% 30.01 in 2.0 mi North - - 0.00 in Snow Light Snow
11:53 AM 6.1 °F -13.3 °F -0.9 °F 73% 30.11 in 1.2 mi NW 18.4 mph - 0.00 in Snow Light Snow
12:40 PM 6.8 °F -12.9 °F -0.4 °F 72% 30.02 in 0.8 mi NW 19.6 mph - 0.00 in Snow Light Snow
12:53 PM 6.1 °F -12.8 °F -0.0 °F 76% 30.12 in 0.8 mi NNW 17.3 mph - 0.00 in Snow Light Snow
1:19 PM 6.8 °F -13.4 °F -0.4 °F 72% 30.04 in 1.0 mi NNW 20.7 mph 25.3 mph 0.01 in Snow Light Snow
1:53 PM 6.1 °F -14.3 °F -0.9 °F 73% 30.13 in 1.0 mi NNW 20.7 mph 26.5 mph 0.01 in Snow Light Snow
2:39 PM 6.8 °F -13.8 °F -0.4 °F 72% 30.06 in 1.5 mi NNW 21.9 mph 26.5 mph 0.00 in Snow Light Snow
2:53 PM 6.1 °F -14.3 °F -0.0 °F 76% 30.15 in 1.5 mi NNW 20.7 mph - 0.00 in Snow Light Snow
3:22 PM 6.8 °F -12.9 °F -0.4 °F 72% 30.06 in 2.5 mi NNW 19.6 mph - 0.00 in Snow Light Snow
3:33 PM 6.8 °F -13.4 °F -0.4 °F 72% 30.07 in 3.0 mi NNW 20.7 mph - 0.00 in Snow Light Snow
3:53 PM 6.1 °F -12.8 °F -0.0 °F 76% 30.17 in 4.0 mi NNW 17.3 mph - 0.00 in Snow Light Snow
4:31 PM 6.8 °F -13.4 °F -0.4 °F 72% 30.09 in 2.5 mi NNW 20.7 mph - 0.00 in Snow Light Snow
4:39 PM 6.8 °F -12.4 °F -0.4 °F 72% 30.09 in 4.0 mi NNW 18.4 mph - 0.00 in Snow Light Snow
4:53 PM 5.0 °F -15.2 °F -2.0 °F 73% 30.19 in 3.0 mi NNW 19.6 mph - 0.00 in Snow Light Snow
5:53 PM 5.0 °F -14.7 °F -2.9 °F 70% 30.19 in 10.0 mi NNW 18.4 mph - 0.00 in   Overcast
6:53 PM 5.0 °F -14.2 °F -2.2 °F 72% 30.10 in 10.0 mi NNW 17.3 mph - N/A   Overcast
7:53 PM 3.9 °F -16.1 °F -4.0 °F 70% 30.22 in 10.0 mi NNW 18.4 mph - N/A   Overcast
8:53 PM 3.0 °F -14.1 °F -6.0 °F 66% 30.25 in 10.0 mi NNW 12.7 mph - N/A   Overcast
9:53 PM 1.9 °F -10.6 °F -6.0 °F 69% 30.27 in 10.0 mi NNW 6.9 mph - N/A   Clear
10:53 PM 1.4 °F -14.5 °F -5.8 °F 72% 30.17 in 10.0 mi NNW 10.4 mph - N/A   Mostly Cloudy
11:53 PM 1.0 °F -11.7 °F -7.1 °F 69% 30.27 in 10.0 mi North 6.9 mph - N/A   Mostly Cloudy